Location: Seminole
(32.7190°N, 102.6440°W)
Time: 09:05:01
(UTC-05:00)

Meteor 2-10 - Visible Passes

Search period start: 02 September 2014 00:00
Search period end: 12 September 2014 00:00
Orbit: 738 x 870 km, 81.2° (Epoch: 31 August)

Date Brightness Start Highest point End Pass type
(mag) Time Alt. Az. Time Alt. Az. Time Alt. Az.
02 Sep 6.3 04:03:57 19° ENE 04:03:57 19° ENE 04:06:46 10° NE visible
02 Sep 4.7 05:45:02 35° WNW 05:45:02 35° WNW 05:49:25 10° NNW visible
03 Sep 6.8 03:38:53 11° ENE 03:38:53 11° ENE 03:39:35 10° ENE visible
03 Sep 4.5 05:19:57 45° NW 05:19:57 45° NW 05:23:50 10° N visible
04 Sep 5.0 04:54:50 40° N 04:54:50 40° N 04:58:04 10° N visible
05 Sep 5.7 04:29:40 29° NNE 04:29:40 29° NNE 04:32:09 10° NNE visible
05 Sep 6.1 06:10:43 10° NW 06:10:43 10° NW 06:10:47 10° NW visible
06 Sep 6.3 04:04:28 19° NE 04:04:28 19° NE 04:06:03 10° NNE visible
06 Sep 6.0 05:45:31 14° NW 05:45:31 14° NW 05:46:40 10° NNW visible
07 Sep 6.8 03:39:14 12° NE 03:39:14 12° NE 03:39:44 10° NE visible
07 Sep 6.0 05:20:17 16° NNW 05:20:17 16° NNW 05:21:35 10° NNW visible
08 Sep 6.1 04:55:01 16° NNW 04:55:01 16° NNW 04:56:09 10° N visible
09 Sep 6.4 04:29:43 15° N 04:29:43 15° N 04:30:30 10° N visible
10 Sep 6.7 04:04:24 12° N 04:04:24 12° N 04:04:42 10° N visible
